TimeEDT,TemperatureF,Dew PointF,Humidity,Sea Level PressureIn,VisibilityMPH,Wind Direction,Wind SpeedMPH,Gust SpeedMPH,PrecipitationIn,Events,Conditions,WindDirDegrees,DateUTC
12:53 AM,48.9,37.9,66,29.84,10.0,NW,12.7,-,N/A,,Clear,320,2012-10-29 04:53:00
1:53 AM,48.9,37.0,64,29.83,10.0,NNW,13.8,20.7,N/A,,Clear,330,2012-10-29 05:53:00
2:53 AM,48.0,37.0,66,29.84,10.0,NW,10.4,17.3,N/A,,Clear,310,2012-10-29 06:53:00
3:53 AM,46.9,36.0,66,29.82,10.0,NW,10.4,-,N/A,,Clear,320,2012-10-29 07:53:00
4:53 AM,46.9,36.0,66,29.82,10.0,NW,8.1,-,N/A,,Clear,310,2012-10-29 08:53:00
5:53 AM,46.0,36.0,68,29.82,10.0,NW,12.7,-,N/A,,Clear,320,2012-10-29 09:53:00
6:53 AM,45.0,35.1,68,29.83,10.0,WNW,9.2,-,N/A,,Clear,300,2012-10-29 10:53:00
7:53 AM,45.0,35.1,68,29.84,10.0,WNW,11.5,17.3,N/A,,Clear,300,2012-10-29 11:53:00
8:53 AM,46.0,36.0,68,29.86,10.0,WNW,9.2,-,N/A,,Clear,300,2012-10-29 12:53:00
9:53 AM,51.1,35.1,54,29.86,10.0,NW,15.0,20.7,N/A,,Clear,320,2012-10-29 13:53:00
10:53 AM,54.0,33.1,45,29.85,10.0,NNW,16.1,26.5,N/A,,Clear,330,2012-10-29 14:53:00
11:53 AM,55.9,32.0,40,29.84,10.0,NNW,18.4,27.6,N/A,,Clear,340,2012-10-29 15:53:00
12:53 PM,59.0,30.9,35,29.82,10.0,NW,17.3,31.1,N/A,,Clear,320,2012-10-29 16:53:00
1:53 PM,61.0,30.0,31,29.79,10.0,NNW,19.6,28.8,N/A,,Clear,340,2012-10-29 17:53:00
2:53 PM,61.0,28.0,29,29.77,10.0,NW,20.7,27.6,N/A,,Clear,320,2012-10-29 18:53:00
3:53 PM,61.0,27.0,27,29.76,10.0,NW,25.3,42.6,N/A,,Clear,310,2012-10-29 19:53:00
4:53 PM,59.0,26.1,28,29.75,10.0,NNW,25.3,31.1,N/A,,Clear,340,2012-10-29 20:53:00
5:53 PM,57.0,26.1,30,29.76,10.0,NNW,20.7,31.1,N/A,,Clear,330,2012-10-29 21:53:00
6:53 PM,53.1,28.0,38,29.78,10.0,NW,12.7,-,N/A,,Clear,320,2012-10-29 22:53:00
7:53 PM,52.0,28.9,41,29.78,10.0,NW,10.4,23.0,N/A,,Clear,310,2012-10-29 23:53:00
8:53 PM,50.0,27.0,41,29.77,10.0,WNW,12.7,21.9,N/A,,Clear,300,2012-10-30 00:53:00
9:53 PM,50.0,25.0,38,29.78,10.0,NW,16.1,25.3,N/A,,Clear,310,2012-10-30 01:53:00
10:53 PM,48.9,25.0,39,29.78,10.0,NW,15.0,25.3,N/A,,Clear,310,2012-10-30 02:53:00
11:53 PM,48.0,24.1,39,29.76,10.0,WNW,11.5,21.9,N/A,,Clear,300,2012-10-30 03:53:00